Location: Bourg-d�Oueil
(42.8588°N, 0.4991°E)
Time: 20:05:04
(UTC+00:00)

Cosmos 2016 Rocket - Pass Details

Date: 16 June 2021
Orbit: 947 x 1000 km, 83.0° (Epoch: 02 August)

Event Time Altitude Azimuth Distance (km) Brightness Sun altitude
Rises 22:04:11 0° 350° (N) 3,628 8.4 -18.7°
Reaches altitude 10° 22:06:41 10° 349° (N) 2,678 7.4 -18.9°
Maximum altitude 22:12:46 76° 265° (W) 980 4.0 -19.4°
Enters shadow 22:16:01 29° 185° (S) 1,651 4.7 -19.7°
